Alpha, California Weather observations
Data are for observation ending at time listed.
Day Time Ave. Ave. Ave. Vector Max. Stn. Total Solar Ave. Snow
of of Air Rel. Wind Wind Wind Baro. Precip. Rad. Soil Depth
Year Day Temp. Hum. Speed Dir. Gust Pres. Temp.
2026 (PST) F % mph deg. mph mb. in. W/m2 F in.
---------------------------------------------------------------------------------------
127 14:50 58.7 38 4.6 257 9.3 790.1 0.00 384 999.0 999.0
127 15:00 58.3 37 4.1 272 9.6 790.1 0.00 362 999.0 999.0
127 15:10 58.7 38 4.3 266 11.3 790.0 0.00 267 999.0 999.0
127 15:20 57.2 36 5.0 275 11.3 789.9 0.00 290 999.0 999.0
127 15:30 57.4 39 5.6 252 12.1 789.9 0.00 214 999.0 999.0
127 15:40 57.0 36 5.8 274 12.1 789.9 0.00 199 999.0 999.0
127 15:50 57.2 38 5.1 258 10.1 789.9 0.00 247 999.0 999.0
127 16:00 57.4 37 4.5 267 9.0 789.8 0.00 39 999.0 999.0
127 16:10 57.8 37 3.8 274 8.6 789.8 0.00 38 999.0 999.0
127 16:20 57.5 38 4.8 259 9.8 789.8 0.00 131 999.0 999.0
127 16:30 57.8 38 4.3 269 8.8 789.8 0.00 220 999.0 999.0
127 16:40 56.9 37 3.8 275 10.4 789.8 0.00 202 999.0 999.0
127 16:50 56.6 40 4.2 283 8.5 789.8 0.00 182 999.0 999.0
127 17:00 56.7 42 4.2 273 8.8 789.7 0.00 164 999.0 999.0
127 17:10 56.4 41 4.6 268 9.6 789.7 0.00 144 999.0 999.0
127 17:20 56.2 41 3.4 272 9.6 789.7 0.00 65 999.0 999.0
127 17:30 56.2 40 4.2 285 8.8 789.7 0.00 97 999.0 999.0
127 17:40 56.0 40 3.3 298 7.5 789.7 0.00 93 999.0 999.0
127 17:50 55.8 40 3.5 283 7.8 789.7 0.00 77 999.0 999.0
127 18:00 54.8 42 3.3 284 6.9 789.6 0.00 62 999.0 999.0
127 18:10 54.4 45 3.2 291 7.3 789.6 0.00 47 999.0 999.0
127 18:20 53.8 48 1.9 298 6.7 789.6 0.00 26 999.0 999.0
127 18:30 52.7 51 2.3 301 5.3 789.7 0.00 11 999.0 999.0
127 18:40 51.9 54 2.7 299 6.6 789.7 0.00 10 999.0 999.0
127 18:50 51.0 58 1.5 315 2.9 789.7 0.00 5 999.0 999.0
127 19:00 50.4 61 1.7 318 4.6 789.8 0.00 3 999.0 999.0
127 19:10 49.6 65 1.9 326 4.7 789.8 0.00 1 999.0 999.0
127 19:20 48.9 66 1.7 328 3.2 789.8 0.00 0 999.0 999.0
127 19:30 48.4 68 2.5 328 4.7 789.9 0.00 0 999.0 999.0
127 19:40 48.0 68 2.0 328 3.1 789.9 0.00 0 999.0 999.0
127 19:50 47.6 69 1.2 326 2.2 790.0 0.00 0 999.0 999.0
127 20:00 47.3 69 0.9 337 1.7 790.2 0.00 0 999.0 999.0
127 20:10 47.3 68 0.5 355 1.8 790.2 0.00 0 999.0 999.0
127 20:20 47.8 47 1.1 285 2.6 790.3 0.00 0 999.0 999.0
127 20:30 48.1 48 1.0 286 2.2 790.4 0.00 0 999.0 999.0
127 20:40 48.5 51 1.9 257 3.2 790.4 0.00 0 999.0 999.0
127 20:50 48.6 49 1.7 225 2.6 790.4 0.00 0 999.0 999.0
127 21:00 48.4 52 2.4 206 4.2 790.4 0.00 0 999.0 999.0
127 21:10 48.0 63 2.4 173 3.6 790.4 0.00 0 999.0 999.0
127 21:20 47.9 67 2.1 168 3.1 790.3 0.00 0 999.0 999.0
127 21:30 47.8 67 2.8 149 4.5 790.3 0.00 0 999.0 999.0
127 21:40 47.8 66 3.5 138 4.6 790.3 0.00 0 999.0 999.0
127 21:50 47.8 64 3.0 125 4.5 790.3 0.00 0 999.0 999.0
127 22:00 47.7 66 3.4 123 4.8 790.3 0.00 0 999.0 999.0
127 22:10 47.6 66 4.0 121 4.9 790.2 0.00 0 999.0 999.0
127 22:20 47.6 65 4.0 114 5.4 790.2 0.00 0 999.0 999.0
127 22:30 47.9 60 3.5 114 5.3 790.1 0.00 0 999.0 999.0
127 22:40 48.3 54 3.1 128 4.6 790.1 0.00 0 999.0 999.0
127 22:50 48.5 50 3.3 132 5.8 790.0 0.00 0 999.0 999.0
127 23:00 48.7 47 3.9 142 6.1 790.0 0.00 0 999.0 999.0
127 23:10 48.7 44 2.7 149 3.9 790.0 0.00 0 999.0 999.0
127 23:20 48.8 40 3.0 148 4.5 790.0 0.00 0 999.0 999.0
127 23:30 49.1 36 3.2 147 5.9 790.0 0.00 0 999.0 999.0
127 23:40 49.1 34 3.0 146 4.7 790.0 0.00 0 999.0 999.0
127 23:50 49.4 32 3.2 142 4.8 789.9 0.00 0 999.0 999.0
128 0:00 49.3 31 2.9 144 4.8 789.8 0.00 0 999.0 999.0
128 0:10 49.5 29 3.3 134 4.9 789.8 0.00 0 999.0 999.0
128 0:20 49.5 28 2.4 130 3.4 789.7 0.00 0 999.0 999.0
128 0:30 49.6 26 2.4 142 4.2 789.6 0.00 0 999.0 999.0
128 0:40 49.6 23 2.7 171 4.7 789.6 0.00 0 999.0 999.0
128 0:50 49.5 23 3.5 187 5.0 789.5 0.00 0 999.0 999.0
128 1:00 49.7 22 3.8 200 5.8 789.5 0.00 0 999.0 999.0
128 1:10 49.8 21 3.0 198 4.7 789.5 0.00 0 999.0 999.0
128 1:20 49.6 21 2.4 200 4.0 789.5 0.00 0 999.0 999.0
128 1:30 49.3 20 2.9 212 4.3 789.5 0.00 0 999.0 999.0
128 1:40 49.3 20 2.7 218 4.5 789.5 0.00 0 999.0 999.0
128 1:50 49.3 20 2.3 222 3.9 789.4 0.00 0 999.0 999.0
128 2:00 49.1 20 3.0 228 5.8 789.5 0.00 0 999.0 999.0
128 2:10 49.1 20 2.4 226 5.3 789.4 0.00 0 999.0 999.0
128 2:20 48.8 20 2.4 235 4.7 789.5 0.00 0 999.0 999.0
128 2:30 48.9 20 2.9 239 6.1 789.4 0.00 0 999.0 999.0
128 2:40 48.8 20 2.5 236 5.0 789.4 0.00 0 999.0 999.0
128 2:50 48.7 20 2.6 234 5.6 789.4 0.00 0 999.0 999.0
128 3:00 48.4 20 2.1 221 4.4 789.3 0.00 0 999.0 999.0
128 3:10 47.9 21 2.8 212 6.4 789.3 0.00 0 999.0 999.0
128 3:20 47.7 21 3.3 202 5.0 789.3 0.00 0 999.0 999.0
128 3:30 47.6 22 4.0 203 6.6 789.3 0.00 0 999.0 999.0
128 3:40 47.4 22 3.9 199 5.7 789.3 0.00 0 999.0 999.0
128 3:50 47.1 22 4.2 192 7.6 789.3 0.00 0 999.0 999.0
128 4:00 47.4 21 4.0 179 5.8 789.2 0.00 0 999.0 999.0
128 4:10 47.5 21 3.5 172 6.1 789.3 0.00 0 999.0 999.0
128 4:20 47.7 21 2.3 150 4.4 789.3 0.00 0 999.0 999.0
128 4:30 47.9 20 3.4 139 5.1 789.3 0.00 0 999.0 999.0
128 4:40 47.9 21 2.5 141 4.5 789.4 0.00 0 999.0 999.0
128 4:50 47.5 22 3.0 140 4.6 789.3 0.00 1 999.0 999.0
128 5:00 47.4 22 2.4 150 3.7 789.3 0.00 2 999.0 999.0
128 5:10 47.5 22 2.5 166 4.2 789.3 0.00 4 999.0 999.0
128 5:20 47.4 20 4.0 179 7.2 789.3 0.00 8 999.0 999.0
128 5:30 48.5 20 2.9 171 5.4 789.4 0.00 23 999.0 999.0
128 5:40 49.4 19 2.3 165 4.2 789.4 0.00 21 999.0 999.0
128 5:50 48.8 19 2.4 146 3.9 789.5 0.00 12 999.0 999.0
128 6:00 48.5 20 2.3 144 4.3 789.5 0.00 18 999.0 999.0
128 6:10 48.9 20 1.6 146 2.6 789.6 0.00 22 999.0 999.0
128 6:20 49.5 18 2.7 185 6.1 789.6 0.00 16 999.0 999.0
128 6:30 49.8 18 4.0 197 6.9 789.7 0.00 25 999.0 999.0
128 6:40 49.7 18 3.6 189 6.4 789.8 0.00 37 999.0 999.0
128 6:50 50.0 18 3.7 199 7.2 789.9 0.00 85 999.0 999.0
128 7:00 50.6 16 4.0 195 7.8 789.9 0.00 178 999.0 999.0
128 7:10 51.5 17 3.4 223 7.2 790.0 0.00 198 999.0 999.0
128 7:20 51.9 16 3.6 194 6.4 790.0 0.00 218 999.0 999.0
128 7:30 52.2 16 4.5 203 7.6 790.1 0.00 237 999.0 999.0
128 7:40 52.5 16 3.8 209 7.3 790.0 0.00 256 999.0 999.0
128 7:50 52.6 16 4.6 191 7.9 790.0 0.00 275 999.0 999.0
128 8:00 53.0 15 4.4 182 7.3 790.0 0.00 294 999.0 999.0
128 8:10 52.8 15 4.2 196 7.5 790.1 0.00 311 999.0 999.0
128 8:20 53.5 15 3.4 182 6.6 790.1 0.00 329 999.0 999.0
128 8:30 54.2 15 3.2 204 7.1 790.1 0.00 346 999.0 999.0
128 8:40 54.2 14 3.5 200 7.4 790.1 0.00 363 999.0 999.0
128 8:50 54.2 14 4.8 180 8.2 790.1 0.00 379 999.0 999.0
128 9:00 54.8 14 3.8 199 7.2 790.1 0.00 394 999.0 999.0
128 9:10 55.0 14 4.0 212 7.3 790.2 0.00 407 999.0 999.0
128 9:20 55.5 14 4.4 211 8.3 790.2 0.00 420 999.0 999.0
128 9:30 55.8 13 3.6 262 7.2 790.2 0.00 432 999.0 999.0
128 9:40 56.0 16 2.9 269 6.3 790.3 0.00 442 999.0 999.0
128 9:50 56.7 18 4.0 240 7.9 790.4 0.00 453 999.0 999.0
128 10:00 56.2 17 4.5 242 9.4 790.4 0.00 464 999.0 999.0
128 10:10 56.7 16 4.0 262 8.7 790.5 0.00 476 999.0 999.0
128 10:20 57.5 18 4.7 226 9.3 790.5 0.00 450 999.0 999.0
128 10:30 57.2 18 5.1 230 9.1 790.5 0.00 507 999.0 999.0
128 10:40 57.3 20 4.4 235 10.2 790.5 0.00 477 999.0 999.0
128 10:50 58.7 20 4.1 260 7.7 790.4 0.00 472 999.0 999.0
128 11:00 57.5 20 3.5 246 7.3 790.4 0.00 426 999.0 999.0
128 11:10 58.5 20 4.9 236 11.0 790.4 0.00 494 999.0 999.0
128 11:20 57.7 20 4.0 239 9.3 790.3 0.00 520 999.0 999.0
128 11:30 59.1 24 4.1 243 9.3 790.3 0.00 520 999.0 999.0
128 11:40 58.6 23 3.9 234 9.9 790.2 0.00 521 999.0 999.0
128 11:50 58.6 25 4.5 239 11.8 790.2 0.00 523 999.0 999.0
128 12:00 59.4 24 3.5 278 8.4 790.2 0.00 522 999.0 999.0
128 12:10 58.8 24 4.9 261 10.1 790.2 0.00 521 999.0 999.0
128 12:20 59.7 24 5.4 238 11.4 790.2 0.00 521 999.0 999.0
128 12:30 59.2 21 3.3 274 8.5 790.2 0.00 516 999.0 999.0
128 12:40 60.2 24 4.8 241 11.0 790.2 0.00 513 999.0 999.0
128 12:50 60.0 25 4.7 254 10.9 790.1 0.00 508 999.0 999.0
128 13:00 60.3 25 5.0 241 16.0 790.1 0.00 501 999.0 999.0
128 13:10 60.1 26 5.8 245 10.5 790.0 0.00 495 999.0 999.0
128 13:20 59.5 27 6.1 244 12.1 790.1 0.00 487 999.0 999.0
128 13:30 60.0 28 5.3 236 10.9 790.0 0.00 479 999.0 999.0
128 13:40 59.8 30 6.2 230 11.4 790.0 0.00 470 999.0 999.0
128 13:50 60.3 30 4.8 250 10.4 790.0 0.00 460 999.0 999.0
128 14:00 59.1 31 6.1 238 10.9 789.9 0.00 449 999.0 999.0
128 14:10 59.6 32 5.2 256 11.2 789.8 0.00 438 999.0 999.0
128 14:20 59.4 32 4.8 255 10.1 789.8 0.00 426 999.0 999.0
128 14:30 59.4 32 5.8 254 10.2 789.7 0.00 414 999.0 999.0
128 14:40 60.2 32 4.1 265 8.6 789.6 0.00 400 999.0 999.0
Return to Alpha graphs page.
Western Regional Climate Center,wrcc@dri.edu